Tracking 31027 objects as of 19-Jul-2025
HD Live streaming from Space Station
objects crossing your sky now

THOR BURNER 2 R/B

Track THOR BURNER 2 R/B now!
10-day predictions


NORAD ID: 3271
Int'l Code: 1968-042B
Perigee: 803.0 km
Apogee: 879.0 km
Inclination: 98.6 °
Period: 101.6 minutes
Semi major axis: 7211 km
RCS: 1.7124 m2 (large)
Launch date: May 23, 1968
Source: United States (US)
Launch site: AIR FORCE WESTERN TEST RANGE (AFWTR)

Note: This is a ROCKET BODY
Your satellite tracking list
FENGYUN 1C DEB
Track 1 satellite(s)




NASA's NSSDC Master Catalog

Two Line Element Set (TLE):
1 03271U 68042B   25199.49238167  .00000076  00000-0  57167-4 0  9992
2 03271  98.5559  20.8185 0052739  72.3811 288.3115 14.17488757949549
Source of the keplerian elements: AFSPC